RH
97 97 87 82 81 78 76 70 68 66 62 64 62 64 64 60 57 58 60 55 60 58 54 59 62 66 72 73 70 68 70 63 60 62 66 73 71 67 63 69 66 71 64
93 96 87 83 79 78 76 71 70 67 62 60 58 57 57 55 55 56 58 56 55 53 54 57 60 62 61 66 66 67 67 62 61 63 69 74 78 71 66 63 64 71 69
95 91 84 83 80 79 78 72 71 69 62 59 57 55 57 55 59 60 59 55 56 57 55 57 57 55 58 61 63 64 62 62 62 66 70 86 87 74 68 66 67 64 64
91 90 87 85 83 81 78 73 71 68 65 60 57 54 53 57 57 55 58 54 56 59 57 57 58 55 57 61 63 63 62 64 67 72 83 81 77 63 68 64 67 63 62
90 88 87 87 86 83 78 74 71 69 65 60 60 59 64 63 66 60 59 54 62 63 60 60 61 62 63 61 60 58 61 64 74 79 86 89 88 62 64 63 64 64 63
90 92 92 89 87 86 82 75 72 70 66 63 60 63 63 71 71 68 63 70 69 67 64 60 62 64 67 69 69 67 64 63 77 92 93 84 78 66 54 62 66 64 64
86 89 92 89 89 86 82 79 74 70 69 64 64 63 67 69 71 72 70 71 69 66 62 62 63 62 64 67 70 73 71 77 86 93 92 84 78 67 62 59 58 62 64
87 90 90 91 89 86 85 84 80 74 70 67 66 65 68 68 69 72 71 71 68 66 64 66 67 69 68 66 67 70 77 83 86 93 91 87 78 68 62 60 62 61 61
91 96 97 94 92 92 90 88 85 81 77 73 70 68 73 73 68 69 76 73 70 69 69 71 72 68 69 71 72 74 82 86 94 97 88 88 79 71 66 63 63 62 63
96 96 97 97 96 96 97 91 89 86 85 83 82 84 87 84 81 76 84 80 74 75 76 73 71 72 73 74 75 81 85 87 94 96 96 91 80 74 70 67 64 62 62
92 96 97 97 97 97 96 93 90 88 89 88 86 87 87 93 87 86 87 84 84 77 75 75 75 77 84 87 86 87 88 97 94 94 92 84 77 73 69 66 65 64 62
83 91 95 96 96 97 82 94 96 91 96 95 94 92 95 92 88 76 87 87 82 82 84 79 79 85 89 97 98 92 90 90 95 92 90 80 76 72 70 69 72 72 71
70 76 83 92 92 96 87 97 99 98 98 97 94 93 94 84 85 86 90 90 91 88 93 90 90 91 91 92 95 94 87 89 96 90 84 80 77 72 70 70 73 74 74
75 72 76 83 91 93 93 93 96 97 97 98 95 92 93 91 93 92 93 90 91 95 91 82 80 68 70 74 82 80 77 85 93 94 93 87 80 65 66 60 66 69 72
73 74 77 83 85 87 92 94 92 92 91 86 86 81 86 92 94 94 95 92 83 74 68 59 65 65 64 64 61 60 64 74 75 78 86 82 76 71 68 63 64 64 66
68 74 78 83 88 89 92 94 94 90 75 85 86 84 84 90 93 83 48 51 58 65 61 59 59 62 59 62 54 58 58 58 62 63 65 71 75 74 60 52 52 58 64
70 78 79 86 89 92 94 91 89 71 72 73 70 58 60 60 47 46 46 56 65 63 56 54 52 50 56 52 56 54 50 50 56 53 60 57 63 69 62 51 59 47 50
64 68 76 75 90 93 94 85 83 70 60 44 39 40 41 44 49 51 54 57 61 56 52 51 53 49 57 58 56 50 49 51 52 52 52 46 54 53 54 57 45 43 43
68 67 71 90 88 91 83 56 45 42 43 42 46 44 43 45 48 51 51 54 54 52 50 50 45 54 58 54 47 49 42 53 59 36 40 42 53 49 47 55 55 52 46
72 73 78 88 78 53 45 41 42 42 50 47 47 44 42 42 42 47 45 48 50 48 50 49 46 50 57 59 46 40 44 58 51 28 36 40 43 36 48 40 46 42 50
86 85 92 74 52 49 46 43 41 54 51 47 41 38 38 38 40 43 46 46 51 48 50 48 52 55 58 62 62 50 61 55 40 24 42 29 42 24 42 29 39 37 42
88 91 83 63 54 52 50 59 51 50 56 50 43 36 34 35 38 38 45 48 49 50 46 50 55 57 62 64 63 69 65 58 42 28 38 36 30 37 35 30 40 43 38
89 85 76 64 60 57 53 49 57 54 59 54 48 40 36 35 38 41 42 45 49 51 51 50 53 54 59 62 56 58 64 67 45 49 36 41 29 49 32 47 36 38 37
80 74 67 60 58 52 46 47 43 49 56 61 54 44 38 35 38 39 41 42 44 48 44 46 41 52 53 55 60 49 58 62 61 54 51 34 46 31 44 46 45 46 30
73 73 69 62 57 62 59 55 59 61 62 61 51 41 37 37 38 37 38 39 41 46 43 42 44 43 52 52 60 64 58 59 59 62 50 49 35 34 38 43 53 38 36
68 66 65 61 62 62 57 58 58 58 54 51 50 48 45 43 42 36 34 37 37 39 41 44 42 40 43 48 51 54 60 59 47 50 49 47 41 38 43 41 47 38 43
Wind_Speed
4 6 16 14 14 13 15 14 13 11 9 10 9 10 11 10 6 5 5 2 9 9 6 6 6 10 11 7 5 3 3 3 4 5 5 6 6 5 6 11 6 2 7
10 6 15 15 16 13 15 13 13 12 10 9 9 10 8 7 5 5 5 6 7 6 4 5 8 8 6 5 1 2 5 2 2 3 4 5 6 7 7 4 4 3 3
11 9 12 15 14 14 15 13 12 12 10 11 10 9 9 7 7 7 7 7 6 5 3 2 3 4 3 3 2 3 3 1 1 3 5 2 4 10 9 5 5 5 4
12 9 9 15 15 15 15 13 12 11 10 9 7 6 6 8 8 8 7 4 4 4 2 1 0 2 3 4 5 5 5 3 4 4 3 3 5 9 11 9 8 7 7
11 9 8 16 15 16 16 13 12 11 9 8 7 3 1 4 7 9 11 6 8 5 3 2 2 3 3 4 6 7 8 8 5 5 4 4 5 7 9 9 9 9 9
9 8 10 16 15 16 14 13 12 11 9 8 7 5 1 3 3 9 8 11 10 7 4 2 3 4 6 7 7 8 9 8 7 5 5 6 6 10 11 11 11 11 10
8 8 11 15 15 16 14 13 12 12 10 9 8 7 5 5 5 6 8 8 7 5 4 3 5 6 7 8 10 10 10 8 4 4 6 6 6 11 13 13 13 13 13
11 9 9 14 17 15 14 13 11 11 11 9 8 7 5 3 4 5 6 7 5 4 4 5 6 8 8 9 10 10 9 8 5 5 6 5 10 13 15 15 15 14 14
11 10 7 9 11 13 13 12 12 12 11 9 7 6 4 4 2 1 6 5 4 4 5 5 8 9 9 10 10 10 9 9 6 4 6 4 11 15 15 15 15 16 15
8 10 10 7 7 7 7 11 10 10 10 10 8 7 5 5 4 2 3 4 5 6 7 8 9 9 10 10 11 11 11 11 6 6 5 5 15 15 15 15 15 16 16
6 8 9 9 7 7 6 6 10 10 10 10 8 7 5 2 4 4 5 8 8 9 8 9 9 9 9 9 10 11 11 4 5 4 4 13 17 17 16 16 16 18 17
10 8 9 9 9 7 6 6 5 5 4 5 5 4 3 3 3 5 5 8 9 9 8 9 10 10 9 4 4 8 3 5 4 5 4 15 18 20 19 19 17 17 19
12 8 10 9 9 8 5 4 3 2 3 3 5 4 3 2 1 2 1 2 3 4 3 4 5 4 5 3 4 4 5 5 3 4 6 15 17 18 20 20 19 18 19
7 10 11 10 8 7 4 5 4 3 3 3 4 5 3 2 1 1 1 3 2 3 3 3 3 5 6 6 5 6 6 5 4 3 5 12 14 18 19 19 19 19 19
10 10 9 9 8 6 7 4 4 4 4 3 4 4 4 4 3 1 2 3 3 3 4 4 4 5 6 6 6 6 6 7 6 3 3 10 13 16 18 18 18 19 19
9 11 8 8 8 8 6 6 4 4 4 4 3 4 5 4 3 4 5 5 4 4 4 4 4 5 4 5 6 6 6 5 6 6 4 5 13 14 16 18 18 17 20
5 8 10 9 8 9 8 6 4 4 5 4 5 6 7 6 7 5 5 5 4 4 5 5 5 5 5 6 6 6 6 7 6 7 5 5 6 9 15 18 18 21 21
7 8 7 8 9 9 7 5 4 6 6 5 6 6 10 9 6 6 5 4 4 5 4 4 5 5 5 5 5 5 6 5 6 7 6 5 5 5 9 16 20 20 21
7 8 8 8 10 9 8 8 8 9 7 6 6 6 7 7 6 6 5 4 5 5 5 4 3 3 3 5 6 5 6 4 3 5 7 6 6 5 5 10 14 14 17
6 6 7 8 11 12 10 9 8 8 5 5 5 5 7 5 7 6 5 5 5 4 5 4 4 3 1 4 4 7 5 2 2 6 6 6 5 6 5 5 5 7 17
5 7 7 13 12 11 10 9 7 4 4 4 5 7 7 6 7 6 5 5 5 5 3 4 3 4 3 5 2 4 4 2 4 11 5 6 7 10 6 9 6 6 6
7 7 8 12 11 9 8 4 5 5 4 4 4 6 6 7 6 6 6 5 5 4 6 5 5 3 2 4 3 2 5 6 7 12 6 6 10 7 9 11 8 6 7
7 8 10 10 10 9 10 9 5 6 4 3 3 4 4 6 7 6 6 5 5 4 4 3 4 4 2 3 6 4 5 3 11 2 8 4 14 5 10 6 9 6 6
7 7 9 11 10 10 12 10 12 6 5 2 3 3 4 6 6 6 6 6 5 3 4 3 4 2 3 4 3 4 2 4 4 8 4 11 4 11 7 5 7 5 8
8 8 8 10 9 7 8 9 7 6 4 3 4 7 6 5 6 6 6 5 4 3 3 4 5 5 3 2 2 3 2 2 4 4 12 6 10 9 8 6 5 6 7
6 7 7 10 6 8 9 8 9 9 8 6 5 4 4 3 3 5 4 4 3 4 4 4 4 5 4 3 2 3 2 3 7 6 9 11 12 8 5 6 6 7 5
Wind_Direction
219 177 165 172 164 150 149 148 139 132 132 127 119 136 131 122 110 123 124 111 90 85 26 4 10 39 42 63 102 125 139 94 29 16 330 297 287 259 240 249 183 254 238
153 177 158 161 165 161 156 151 141 139 136 138 133 133 134 118 135 139 137 123 100 101 20 348 352 4 32 37 42 206 219 172 31 318 295 290 292 268 254 226 164 210 226
152 167 159 167 171 166 157 153 149 146 143 142 153 149 166 180 136 134 140 144 92 69 46 22 345 332 322 319 298 279 300 2 233 270 286 292 271 263 246 202 227 236 250
154 168 165 170 171 162 159 160 156 154 154 160 178 167 164 173 166 155 149 117 144 149 154 284 288 348 285 289 276 280 300 325 240 256 282 273 287 279 227 212 242 242 234
159 168 169 169 170 167 164 164 161 160 162 166 185 125 129 171 206 177 160 151 159 169 170 229 289 302 312 306 300 299 283 279 251 267 282 283 281 272 223 240 250 256 251
161 164 169 167 168 165 165 166 167 164 168 173 185 157 141 7 218 182 179 166 167 174 199 225 265 282 286 286 287 283 278 278 249 267 283 285 287 267 263 241 246 254 257
164 164 163 167 163 161 166 168 171 169 171 173 178 171 141 55 33 164 188 159 174 180 222 259 300 308 303 292 291 278 277 278 262 257 270 276 272 278 273 268 263 262 262
159 162 167 166 162 164 169 174 174 175 174 173 176 178 162 117 56 171 176 171 193 234 258 289 294 300 304 297 292 290 292 286 262 258 258 266 275 280 274 272 269 264 269
157 152 160 166 168 170 173 175 182 184 175 171 165 174 162 162 155 109 198 198 216 252 271 288 291 291 292 290 290 287 286 275 265 254 264 252 265 277 275 272 272 272 269
165 164 165 169 170 168 167 180 182 177 164 163 161 157 170 193 218 227 188 237 239 249 268 281 280 280 282 284 284 280 275 272 260 254 250 255 273 275 279 282 280 274 272
185 178 171 174 177 174 172 184 178 177 168 172 175 183 178 187 225 225 224 236 226 246 260 267 269 272 274 274 276 277 281 258 261 256 251 258 269 278 281 279 279 277 275
189 196 183 177 184 173 181 175 171 174 169 177 187 196 173 199 232 204 207 223 237 247 260 271 284 286 282 266 271 282 274 269 257 259 246 268 282 285 283 283 279 274 268
192 182 188 183 185 170 177 164 161 175 171 190 198 194 191 173 211 190 239 287 287 310 297 299 294 291 284 282 288 285 288 289 268 260 262 268 283 294 293 295 291 287 285
191 193 179 188 177 173 160 166 162 176 181 195 209 201 167 181 132 298 277 269 265 266 280 312 358 9 18 7 358 334 322 319 307 289 286 284 294 310 307 307 302 294 284
195 193 176 166 171 155 151 136 162 180 167 198 174 173 161 124 118 96 45 40 23 19 41 37 29 18 10 355 350 354 342 339 332 330 309 304 312 323 325 331 329 322 302
188 185 161 156 148 144 138 143 128 137 151 152 124 129 108 109 103 82 62 43 34 35 45 40 31 19 5 356 350 344 329 331 334 330 323 334 336 342 355 4 1 2 11
181 156 159 151 141 136 143 130 131 121 107 95 90 76 70 73 79 76 71 47 24 29 38 33 20 18 18 358 347 335 333 337 336 340 351 348 344 341 359 3 14 8 12
133 147 153 151 144 135 131 124 100 88 93 90 86 86 78 76 80 76 68 48 31 36 34 35 20 6 7 359 330 320 323 337 342 356 348 350 346 355 349 1 5 5 4
142 137 140 141 141 119 100 100 101 95 90 89 80 82 82 79 73 76 64 46 43 40 31 20 12 30 6 345 319 313 311 331 359 358 347 344 341 356 344 357 351 352 356
145 147 129 132 119 113 111 107 94 89 78 77 86 88 84 77 72 76 61 52 46 48 27 18 9 343 353 325 320 308 301 313 29 9 347 346 349 355 341 333 340 337 357
128 131 138 130 133 124 127 123 117 118 95 72 77 83 82 78 70 68 59 48 40 53 36 25 346 351 328 337 340 309 317 335 43 355 356 347 360 349 350 354 346 344 343
139 126 126 129 132 127 129 113 120 127 79 93 83 74 74 73 69 71 67 53 42 40 26 23 29 340 319 12 338 329 346 330 354 325 337 344 351 347 347 341 327 336 343
136 137 133 135 131 126 125 114 93 91 70 73 59 71 56 74 68 68 64 62 49 46 30 7 11 35 348 316 13 69 350 313 322 317 313 337 338 331 327 318 314 320 338
152 133 131 135 133 136 140 135 142 133 133 158 123 103 80 68 68 65 65 58 52 38 29 349 11 12 15 12 346 30 193 247 317 321 329 317 313 316 300 299 304 313 327
136 137 137 132 134 134 127 130 125 116 111 110 103 105 87 66 67 64 62 56 47 31 12 13 6 12 21 4 9 331 322 262 241 262 302 315 308 310 304 294 297 307 309
125 121 129 127 123 130 128 129 132 132 129 118 125 116 110 84 59 50 56 53 40 21 4 353 354 6 3 357 330 323 292 303 312 303 299 303 298 294 276 298 293 302 285